TimeCST,TemperatureF,Dew PointF,Humidity,Sea Level PressureIn,VisibilityMPH,Wind Direction,Wind SpeedMPH,Gust SpeedMPH,PrecipitationIn,Events,Conditions,WindDirDegrees,DateUTC
12:53 AM,42.1,36.0,79,30.14,10.0,WSW,6.9,-,N/A,,Clear,240,2013-12-17 06:53:00
1:53 AM,42.1,36.0,79,30.15,10.0,WSW,4.6,-,N/A,,Clear,240,2013-12-17 07:53:00
2:53 AM,39.9,35.1,83,30.14,10.0,WSW,5.8,-,N/A,,Clear,250,2013-12-17 08:53:00
3:53 AM,41.0,35.1,79,30.15,10.0,West,6.9,-,N/A,,Clear,260,2013-12-17 09:53:00
4:53 AM,39.0,35.1,86,30.14,10.0,WSW,5.8,-,N/A,,Clear,250,2013-12-17 10:53:00
5:53 AM,37.9,35.1,89,30.15,10.0,WSW,4.6,-,N/A,,Clear,250,2013-12-17 11:53:00
6:53 AM,39.0,35.1,86,30.18,10.0,West,6.9,-,N/A,,Clear,260,2013-12-17 12:53:00
7:53 AM,39.9,36.0,86,30.19,10.0,West,6.9,-,N/A,,Clear,280,2013-12-17 13:53:00
8:53 AM,44.1,37.0,76,30.21,10.0,WNW,5.8,-,N/A,,Clear,290,2013-12-17 14:53:00
9:53 AM,46.9,37.0,68,30.22,10.0,Calm,Calm,-,N/A,,Clear,0,2013-12-17 15:53:00
10:53 AM,50.0,37.0,61,30.22,10.0,West,4.6,-,N/A,,Clear,280,2013-12-17 16:53:00
11:53 AM,53.1,36.0,52,30.20,10.0,NW,9.2,-,N/A,,Clear,310,2013-12-17 17:53:00
12:53 PM,51.1,37.0,59,30.21,10.0,NNW,9.2,20.7,N/A,,Clear,330,2013-12-17 18:53:00
1:53 PM,54.0,37.0,53,30.21,10.0,NNW,6.9,-,N/A,,Clear,330,2013-12-17 19:53:00
2:53 PM,54.0,35.1,49,30.22,10.0,NW,4.6,18.4,N/A,,Clear,310,2013-12-17 20:53:00
3:53 PM,54.0,33.1,45,30.23,10.0,NNW,9.2,-,N/A,,Clear,330,2013-12-17 21:53:00
4:53 PM,48.9,33.1,54,30.25,10.0,Calm,Calm,-,N/A,,Clear,0,2013-12-17 22:53:00
5:53 PM,43.0,33.1,68,30.25,10.0,NW,3.5,-,N/A,,Clear,310,2013-12-17 23:53:00
6:53 PM,37.0,32.0,82,30.27,10.0,Calm,Calm,-,N/A,,Clear,0,2013-12-18 00:53:00
7:53 PM,37.9,32.0,79,30.28,10.0,Calm,Calm,-,N/A,,Clear,0,2013-12-18 01:53:00
8:53 PM,37.0,30.9,79,30.29,10.0,West,3.5,-,N/A,,Clear,280,2013-12-18 02:53:00
9:53 PM,44.1,30.0,58,30.31,10.0,NW,6.9,-,N/A,,Clear,320,2013-12-18 03:53:00
10:53 PM,44.1,28.0,53,30.31,10.0,North,6.9,-,N/A,,Clear,360,2013-12-18 04:53:00
11:53 PM,39.9,28.9,65,30.32,10.0,North,4.6,-,N/A,,Clear,10,2013-12-18 05:53:00